Regional Weather Roundup
Issued by NWS Newport/Morehead, NC

Current Version | Previous Version | Text Only | Print | Product List | Glossary On
Versions: 1 2 3 4 5 6 7 8 9 10 11 12 13 14 15 16 17 18 19 20 21 22 23 24 25 26 27 28 29 30 31 32 33 34 35 36 37 38 39 40 41 42 43 44 45 46 47 48 49 50
000
ASUS42 KMHX 251813
RWRMHX
WEATHER ROUNDUP FOR EASTERN NORTH CAROLINA
NATIONAL WEATHER SERVICE NEWPORT/MOREHEAD CITY NC
200 PM EDT WED APR 25 2018

NOTE: "FAIR" INDICATES FEW OR NO CLOUDS BELOW 12,000 FEET
WITH NO SIGNIFICANT WEATHER AND/OR OBSTRUCTIONS TO VISIBILITY

NCZ015>017-031-032-045>047-102-103-251900-
NORTH COAST

CITY           SKY/WX    TMP DP  RH WIND       PRES   REMARKS
EDENTON        PTSUNNY   71  64  76 SE3       29.70F
ELIZABETH CITY PTSUNNY   75  64  68 SW8G20    29.69F
KITTY HAWK     FAIR      74  58  56 MISG      29.69F
MANTEO         FAIR      70  58  66 S18       29.70F

$$

NCZ045>047-081-094-103-104-251900-
CENTRAL COAST

CITY           SKY/WX    TMP DP  RH WIND       PRES   REMARKS
FRISCO         FAIR      72  63  73 S10       29.74F

$$

NCZ095-097-098-100-101-251900-
SOUTHERN COAST

CITY           SKY/WX    TMP DP  RH WIND       PRES   REMARKS
BEAUFORT       FAIR      68  62  81 S18       29.74F
CEDAR ISLAND   NOT AVBL
JACKSONVILLE   PTSUNNY   74  58  57 W15       29.72S
PINEY ISLAND   NOT AVBL
WILMINGTON     FAIR      76  55  48 W16       29.73F


$$

NCZ011>013-027>030-043-044-078>080-089-090>093-098-251900-
COASTAL PLAIN

CITY           SKY/WX    TMP DP  RH WIND       PRES   REMARKS
AHOSKIE        PTSUNNY   67  63  85 CALM      29.70S
CLINTON        FAIR      69  57  65 W12G18    29.75R
ELIZABETHTOWN  PTSUNNY   73  55  52 MISG      29.75S
GOLDSBORO      PTSUNNY   72  59  64 W16G22    29.70S
GREENVILLE     FAIR      72  59  64 W9G16     29.74S
HAVELOCK       MOSUNNY   74  63  68 S16G23    29.72F
KENANSVILLE    CLOUDY    72  55  56 W14G20    29.73S
KINSTON        FAIR      72  57  60 W7G17     29.72S
NEW BERN       FAIR      73  57  57 MISG      29.71F
RICHLANDS      FAIR      75  58  55 SW10G23   29.73S
ROCKY MOUNT    CLOUDY    67  59  75 SW8       29.72S
WASHINGTON     PTSUNNY   74  58  57 SW8       29.70S
WHITEVILLE     CLOUDY    71  56  58 CALM      29.75S

$$

AMZ130-135-150-152-154-156-158-170-250-252-270-ANZ085-086-088-633-658-670-251900-
MARINE OBSERVATIONS

STATION/POSITION TIME  TEMP    WIND        PRES    WAVE   SWELL
                       AIR SEA DIR/SP/G            HT/PER HT/PER
                 (UTC) (F)     (DEG/KT/KT) (MB)    (FT/S) (FT/S)
CHESAPEAKE LIGHT NOT AVBL
64 E VA BEACH    1750   54 51  180/  6/  8 1006.9   11/11  11/11
DUCK             1748   71 52  220/ 10/ 12 1004.9
2 E DUCK         1800      53                N/A     6/11   3/11
OREGON INLET     1736   64 55  190/ 15/ 17 1006.1
13E OREGON INLT  1748      54                N/A     9/10  10/10
HATTERAS CG      1748   69 65  200/  8/ 13 1006.9
DIAMOND BUOY     1800   70 70  230/ 17/ 23 1007.5
CAPE LOOKOUT     1800          200/ 14/ 18 1007.5
BEAUFORT LAB     1748   66 63  200/ 15/ 20 1007.1
30 SE NEW RVR IN 1708   66 67  210/ 14/ 17 1005.1
30 SE NEW RVR IN 1800      67                N/A     7/10   2/11
27 SE WRIGHTSVLE 1708   65 66  220/ 19/ 27 1007.7
5 SE WRIGHTSVLE  1708   65 63  220/ 14/ 19 1006.6
225 S CAPE HAT   1800   72 73  230/ 16/ 23 1009.4
41 SE CHARLESTON 1750      69  240/ 14/ 17 1009.7    6/ 8   5/ 8

$$



USA.gov is the U.S. government's official web portal to all federal, state and local government web resources and services.